Temperature
23 22 21 20 20 21 23 25 26 25 25 25 24 24 22 22 21 19 19 19 20 19 19 19 19 19 19 19 19 19 19 19 19 19 19 18 18 18 18 19 19 18 18 18 18 18 18 18 18
23 22 21 20 21 22 24 26 25 26 25 25 24 23 22 21 20 19 19 19 20 19 19 19 19 19 19 19 18 19 19 19 19 18 18 18 18 18 18 18 18 18 18 18 18 18 18 18 18
23 22 21 20 22 23 25 26 26 26 26 25 24 23 22 21 20 20 20 20 20 19 19 19 19 19 19 19 18 18 19 19 19 18 18 18 18 18 18 18 18 18 18 18 18 18 18 18 18
23 22 21 21 23 25 26 26 26 26 25 25 24 23 22 22 21 20 20 20 20 20 19 19 19 19 19 18 19 19 19 19 19 18 18 18 18 18 18 18 18 18 18 18 18 18 18 18 18
23 22 22 22 25 27 27 27 27 26 25 24 23 22 21 21 21 20 20 20 20 20 19 19 19 19 19 19 19 19 19 19 19 18 18 18 18 18 18 18 18 18 18 18 18 18 18 18 18
23 22 22 23 26 27 28 27 26 25 24 23 23 22 21 21 21 20 20 20 20 20 20 19 19 19 19 19 19 19 19 19 19 18 18 18 18 18 18 18 18 18 18 18 18 18 18 18 18
23 22 23 25 26 27 28 27 26 25 25 24 23 22 21 21 21 20 20 20 20 20 20 20 19 19 19 19 19 19 19 19 19 18 18 18 18 18 18 18 18 18 18 18 18 18 18 18 18
25 23 24 25 26 27 28 28 27 26 25 24 23 22 21 21 21 21 20 20 20 20 20 20 19 19 19 19 19 19 19 19 19 18 18 18 18 18 18 18 18 18 18 18 18 18 18 18 18
27 23 24 26 27 27 28 28 27 27 25 25 24 23 22 21 21 20 20 20 20 20 20 20 20 19 19 19 19 19 19 19 19 18 18 18 18 18 18 18 18 18 18 18 18 18 18 18 18
26 24 26 28 28 28 29 28 27 26 25 24 23 23 22 22 21 21 20 20 20 20 20 20 20 19 19 19 19 19 19 19 19 19 18 18 18 18 18 18 18 18 18 18 18 18 18 18 18
27 26 28 30 30 30 29 28 28 25 24 23 23 22 22 22 21 21 21 21 20 20 20 20 20 19 19 19 19 19 19 19 19 19 19 18 18 18 18 18 18 18 18 18 18 18 18 18 18
28 29 30 30 31 30 29 29 27 26 25 25 24 23 22 22 21 21 21 21 21 20 20 20 20 20 19 19 19 19 19 19 19 19 19 18 18 18 18 18 18 18 18 18 18 18 18 18 18
29 30 31 31 31 30 29 28 27 26 25 24 24 23 23 22 22 22 21 21 21 21 20 20 20 20 19 19 19 19 19 19 19 19 19 18 18 18 18 18 18 18 18 18 18 18 18 18 18
30 30 30 31 30 30 28 27 26 25 25 24 24 23 23 22 22 22 21 21 21 21 20 20 20 20 20 19 19 19 19 19 19 19 19 18 18 18 18 18 18 18 18 18 18 18 18 18 18
30 29 29 29 30 29 28 27 26 25 25 24 24 23 23 23 23 22 22 22 21 21 21 20 20 20 20 20 19 19 19 19 19 19 19 18 18 18 18 18 18 18 18 18 18 18 18 18 18
28 27 27 29 29 29 27 25 26 26 25 24 24 24 23 23 23 23 22 22 22 21 21 21 20 20 20 20 20 19 19 19 19 19 19 19 19 19 18 18 18 18 18 18 18 18 18 18 18
26 26 27 28 29 29 27 26 26 26 25 24 24 24 23 23 23 23 23 22 22 22 21 21 20 20 20 20 19 19 19 19 19 19 19 19 19 19 19 19 18 18 18 18 18 18 18 18 18
25 26 27 28 29 29 27 26 26 26 26 25 24 24 23 23 23 23 23 23 22 22 21 21 21 20 20 20 20 19 19 19 19 19 19 19 19 19 19 18 18 18 18 18 18 18 18 18 18
27 27 27 28 29 28 27 26 26 26 25 25 24 24 24 23 24 23 23 23 22 22 21 21 21 20 20 20 20 19 19 19 19 19 19 19 19 19 19 19 18 18 18 18 18 18 18 18 18
27 27 27 28 29 28 27 26 26 26 25 25 24 24 24 23 23 23 23 23 22 22 22 21 21 21 20 20 20 20 20 19 19 19 19 19 19 19 19 19 19 18 18 18 18 18 18 18 18
27 27 27 28 28 28 27 25 25 26 26 25 25 24 24 24 23 23 23 23 23 22 22 22 21 21 21 20 20 20 19 19 19 19 19 19 19 19 19 19 19 19 19 18 18 18 18 18 18
27 28 28 29 27 25 26 24 24 25 25 25 24 24 24 24 23 23 23 23 23 23 22 22 22 21 21 20 20 20 20 20 20 19 19 19 19 19 19 19 19 19 19 19 18 18 18 18 18
28 29 28 28 26 24 24 23 23 24 24 24 24 24 24 24 24 23 23 23 23 23 23 22 22 21 21 21 20 20 20 20 20 19 19 19 19 19 19 19 19 19 19 19 19 18 18 18 18
29 28 26 24 22 23 24 24 23 23 24 24 24 24 24 24 24 24 24 23 23 23 22 22 22 21 21 21 21 20 20 20 20 19 19 19 19 19 19 19 19 19 19 19 19 19 18 18 18
27 24 23 23 22 22 23 23 22 24 24 24 24 24 24 24 24 23 23 23 23 23 22 22 22 22 21 21 21 21 20 20 20 20 19 19 19 19 19 19 19 19 19 19 19 19 18 18 18
26 24 23 23 23 22 23 23 23 24 25 25 25 25 24 24 24 24 24 23 23 23 23 22 22 22 22 21 21 21 20 20 20 20 19 19 19 19 19 19 19 19 19 19 19 19 18 18 18
27 25 23 22 23 22 22 23 24 24 24 24 24 24 24 24 24 23 23 23 23 23 23 23 22 22 22 22 21 21 20 20 20 20 20 19 19 19 19 19 19 19 19 19 19 19 18 18 18
27 25 22 22 22 22 23 23 22 23 23 23 23 23 23 23 24 24 23 23 23 23 23 22 22 22 22 22 21 21 21 20 20 20 19 19 19 19 19 19 19 19 19 19 18 18 18 18 18
26 26 22 20 20 21 22 22 24 23 23 22 22 23 23 23 23 23 23 23 23 23 22 22 22 22 22 22 21 21 21 20 20 20 19 19 19 19 19 19 19 19 19 18 18 18 18 18 18
26 25 22 22 21 20 20 21 24 23 22 22 22 23 23 23 23 23 23 23 23 23 22 22 22 22 22 22 21 21 20 20 20 20 19 19 19 19 19 19 19 19 18 18 18 18 18 18 18
Wind_Speed
13 10 5 2 1 2 2 3 8 9 7 9 12 11 10 7 5 5 3 8 9 7 7 11 13 14 14 15 15 16 17 18 19 20 20 21 22 22 22 22 21 20 20 19 18 18 17 16 16
10 7 2 1 3 3 2 5 10 11 12 13 12 12 10 7 7 9 6 8 10 8 9 11 14 14 14 15 15 16 17 18 19 19 19 20 21 21 21 21 20 20 19 18 18 17 16 15 15
9 5 1 2 1 4 4 6 12 12 12 10 7 7 6 6 8 7 8 12 10 8 9 12 14 14 15 15 16 16 17 18 18 18 18 19 20 20 20 20 19 19 18 18 17 16 15 14 14
4 2 1 2 1 4 7 9 13 12 9 9 10 7 5 6 7 10 14 13 11 7 8 12 14 15 15 15 16 17 17 17 17 17 17 18 19 19 19 19 18 18 18 17 16 15 14 13 13
1 2 3 1 1 3 7 11 11 10 6 10 11 9 5 5 15 18 15 14 12 8 8 11 14 14 14 15 16 16 16 17 17 17 17 17 18 19 18 18 18 17 17 16 15 14 13 12 11
2 2 3 1 2 3 6 11 12 13 14 12 12 9 4 9 15 16 14 12 11 10 7 10 13 13 13 14 15 15 16 16 16 16 16 16 17 17 18 17 17 17 16 15 14 13 12 10 9
3 2 2 2 3 4 7 9 11 13 13 9 10 8 6 8 13 14 13 11 10 9 7 6 9 11 13 14 14 14 15 16 16 16 16 16 16 17 17 16 16 16 15 14 13 12 11 9 8
4 2 1 2 4 4 7 7 10 13 11 13 9 8 8 10 12 13 12 10 9 7 6 5 7 8 10 11 13 13 15 15 16 16 16 15 15 15 15 15 15 15 15 14 13 12 10 8 7
4 2 3 4 5 5 8 11 8 8 12 7 5 8 13 16 15 14 11 8 7 7 6 6 6 7 8 9 11 12 14 14 14 14 15 13 10 11 11 13 14 15 14 13 12 10 9 7 6
5 4 7 7 7 7 9 13 9 8 12 9 11 13 16 15 15 14 13 11 9 9 7 6 7 7 8 8 9 8 9 10 10 9 10 9 9 9 10 12 13 13 13 12 11 10 8 6 4
6 7 5 5 5 8 10 9 6 13 9 14 18 18 16 15 13 12 12 12 11 10 9 8 8 7 6 5 7 6 6 8 8 9 9 9 8 7 7 7 9 9 10 8 8 7 6 5 4
3 6 6 4 4 7 9 8 8 9 11 18 20 19 16 15 13 12 12 10 10 10 9 8 8 7 6 6 6 6 5 5 6 8 10 8 5 5 6 5 6 6 6 5 5 4 4 5 5
1 3 1 2 5 8 10 10 9 9 16 18 19 17 16 15 13 11 11 10 9 9 8 8 8 8 7 6 5 6 5 6 7 8 9 10 6 5 5 5 6 6 6 5 4 4 4 4 4
3 4 2 2 5 7 11 9 8 11 18 18 17 15 15 15 14 11 11 10 9 9 8 7 8 8 8 7 6 5 6 7 7 8 9 10 8 6 5 5 5 5 6 6 6 5 4 3 3
4 5 5 1 4 5 10 5 8 16 18 18 16 15 14 14 14 14 14 13 11 10 9 8 9 8 8 8 6 6 6 7 6 7 10 10 10 9 7 5 5 5 8 7 5 3 2 2 2
6 5 3 4 2 4 8 5 8 15 17 16 15 14 13 12 14 14 14 13 11 11 10 9 10 8 8 7 6 5 6 7 7 8 9 10 11 11 7 5 5 6 6 5 4 3 2 2 2
4 2 5 7 3 2 5 5 9 12 15 14 14 13 13 12 12 13 15 14 13 12 11 9 8 9 8 6 5 5 5 5 6 8 8 10 11 12 8 5 5 7 5 4 4 3 3 3 3
6 5 6 6 3 2 2 5 9 12 13 14 14 13 13 14 14 15 15 14 13 12 11 9 8 8 7 5 4 3 3 4 5 6 8 9 9 10 8 5 6 6 5 4 3 3 3 3 3
7 5 7 8 5 3 3 4 9 11 11 11 12 12 13 13 12 13 14 15 13 12 11 10 9 8 6 4 4 4 4 4 4 5 8 9 10 10 7 5 5 5 5 5 5 3 3 3 2
5 6 7 7 5 3 2 2 6 10 14 15 16 15 13 12 11 13 13 14 14 14 12 11 10 9 8 6 5 4 4 3 4 4 5 8 9 9 8 6 6 5 4 4 4 4 3 2 3
7 6 7 5 3 2 4 2 3 6 7 10 13 14 14 16 16 15 14 14 14 14 14 13 12 10 9 7 4 3 2 2 2 3 4 5 8 8 7 7 6 6 5 5 5 5 5 3 2
8 9 7 4 1 2 2 2 6 5 5 8 10 10 12 14 13 12 14 14 15 15 14 12 12 10 9 8 7 7 6 5 5 4 4 5 6 7 7 7 7 6 5 5 5 5 4 5 3
9 8 4 3 3 0 1 3 6 2 3 7 10 11 12 13 14 14 14 15 14 13 12 11 11 10 9 9 9 8 6 5 3 3 4 5 4 5 6 7 6 6 5 6 5 4 4 4 4
5 1 4 5 5 1 5 4 5 4 7 8 8 9 10 12 13 12 11 10 10 12 11 11 11 10 9 9 9 9 8 7 6 5 6 5 3 4 5 6 6 6 5 6 6 5 5 5 4
1 4 3 5 4 5 3 3 7 7 7 9 9 9 7 9 11 11 10 11 11 13 13 12 12 11 10 10 9 9 9 8 8 7 7 6 4 4 5 6 5 5 5 5 5 6 5 5 4
4 9 8 6 6 5 2 4 6 6 4 6 7 8 7 7 8 10 12 12 12 13 13 12 13 12 12 11 10 9 8 7 6 7 6 7 6 6 6 6 6 6 5 5 5 5 5 5 5
4 5 10 8 3 2 3 3 4 2 3 5 5 7 7 8 9 9 9 10 11 13 14 14 14 12 12 12 10 9 8 7 7 6 6 5 5 6 6 7 6 6 6 5 5 4 5 5 5
5 6 6 6 5 3 4 3 5 4 2 5 7 7 6 6 8 8 7 9 10 10 10 11 11 11 10 11 10 9 8 7 6 6 6 6 6 6 6 6 6 6 6 5 5 4 5 5 5
1 1 4 5 6 7 3 6 5 8 6 6 6 8 7 6 7 7 6 7 8 8 8 10 11 9 9 10 9 9 8 7 6 5 6 6 5 6 6 7 7 7 6 6 5 5 5 5 5
4 4 6 4 4 6 5 6 3 6 6 7 7 7 8 7 6 5 6 5 6 6 7 9 10 10 9 9 8 8 7 7 7 7 6 6 6 6 6 6 6 7 7 6 6 7 6 6 6
Wind_Direction
157 154 155 170 32 50 84 98 102 89 69 69 76 83 82 68 91 127 155 135 124 122 120 116 113 112 111 109 111 116 120 123 123 125 125 126 127 128 129 129 130 131 131 131 131 129 126 125 125
158 158 160 69 70 78 89 111 98 103 120 108 85 85 80 73 89 118 130 133 125 121 120 118 118 115 115 114 114 116 120 124 125 126 128 129 130 131 131 132 132 132 132 133 132 130 128 127 126
163 170 142 65 119 154 139 118 111 107 113 105 95 74 76 104 118 133 142 136 125 118 121 125 121 118 117 119 118 118 121 124 125 129 131 132 132 133 135 134 134 134 134 134 133 131 130 129 129
158 148 57 58 181 181 143 137 119 109 89 87 99 78 72 108 124 133 135 132 125 122 125 127 123 121 120 122 123 122 124 126 127 130 132 134 136 137 137 137 136 136 136 136 135 133 133 131 130
127 98 40 16 108 120 135 136 125 116 102 98 99 99 83 87 118 129 134 135 132 128 129 128 126 125 125 125 124 124 126 128 129 131 135 136 138 140 140 140 141 141 141 140 139 137 136 134 134
98 77 62 39 71 88 125 126 112 108 116 111 107 107 102 125 129 135 138 138 139 137 133 133 132 130 128 128 128 129 130 131 132 133 134 138 141 141 142 144 145 147 147 145 144 144 144 144 143
136 113 159 154 109 112 139 133 122 128 132 134 128 108 122 138 143 139 139 136 136 138 136 136 139 138 135 133 133 134 134 134 135 135 135 138 140 141 144 147 149 150 150 150 150 151 153 155 153
167 117 194 153 141 157 153 123 131 130 123 132 129 128 149 156 144 134 135 133 136 139 140 142 140 141 141 140 139 140 140 138 139 139 140 142 143 144 146 149 152 153 153 153 154 156 161 163 167
152 108 213 192 172 174 142 115 112 101 119 129 113 129 148 145 137 133 133 133 142 145 150 150 148 147 147 145 142 138 141 141 143 146 147 146 145 146 150 154 155 157 156 157 159 163 169 176 183
150 173 215 209 183 164 144 131 127 109 108 106 107 120 137 140 139 141 147 150 152 158 164 161 156 157 158 153 141 141 142 145 147 151 150 148 150 156 158 164 162 161 161 163 168 174 181 190 204
170 186 213 220 179 151 141 141 123 128 132 145 145 148 147 146 147 150 153 156 161 163 162 162 159 158 156 144 147 152 149 152 155 160 160 158 158 163 163 165 169 167 167 173 179 187 192 200 208
195 228 208 200 156 136 141 139 128 141 155 156 151 153 152 153 157 159 158 158 157 159 163 162 158 157 156 150 155 159 156 159 164 169 169 163 159 157 161 165 168 169 175 179 190 198 202 211 217
231 262 246 150 123 123 117 123 120 129 141 146 148 153 157 159 161 162 159 158 154 155 160 160 156 158 154 151 162 162 165 168 172 172 170 165 158 155 157 163 171 176 179 183 190 202 204 210 213
271 290 296 99 96 116 118 123 115 146 146 148 153 159 165 165 164 160 157 157 160 160 159 158 153 155 154 154 154 156 166 170 171 174 175 173 168 159 157 159 166 180 189 194 196 197 197 205 203
352 354 350 27 114 129 118 110 152 155 151 155 160 164 168 170 165 167 167 163 165 164 159 159 155 154 158 159 159 157 171 169 169 174 176 176 174 172 166 165 175 186 188 188 191 194 190 208 208
7 9 331 284 155 160 123 175 183 162 158 160 163 168 172 173 172 171 168 164 164 163 163 168 164 160 162 163 164 159 167 167 171 173 176 181 179 177 169 170 182 191 182 176 173 179 181 209 214
12 321 285 291 244 160 131 182 186 175 162 163 166 170 173 175 175 173 170 168 166 166 165 167 158 162 168 167 160 157 159 166 172 173 176 182 181 179 173 174 181 184 176 181 189 176 176 194 209
254 266 275 271 249 117 146 190 181 177 170 170 171 168 173 181 182 176 171 169 166 166 165 164 162 166 166 158 146 142 148 167 172 175 182 180 179 177 174 175 178 177 175 187 187 176 176 188 194
232 254 264 264 244 169 203 195 179 178 178 175 176 175 177 188 186 173 170 169 166 165 165 167 166 171 164 159 161 162 172 174 175 185 184 181 179 176 174 178 178 178 182 190 183 176 175 196 175
245 266 270 278 261 192 151 222 194 182 187 184 177 178 179 176 178 177 172 171 172 173 174 171 173 175 173 175 172 170 165 174 181 183 181 184 179 177 181 178 182 180 178 182 182 172 171 199 173
263 240 246 241 292 51 110 317 247 205 185 185 187 181 178 177 180 180 177 176 175 178 180 180 179 177 178 173 156 150 126 130 163 176 187 188 183 185 186 184 181 180 177 185 192 184 175 190 203
254 248 238 232 133 272 134 229 271 219 185 185 187 188 183 181 177 180 181 178 181 185 182 179 177 176 176 169 166 164 172 184 195 186 188 189 185 184 188 182 181 181 181 187 197 187 178 174 196
232 238 240 231 157 43 28 144 269 264 201 199 190 189 190 183 179 182 184 185 184 183 181 177 172 174 176 172 172 173 180 187 180 174 178 186 189 187 188 184 183 187 190 193 197 184 183 183 186
236 321 6 46 73 320 244 170 259 229 210 198 188 187 188 184 182 186 186 179 178 178 179 176 174 178 178 175 175 178 179 180 174 179 183 187 190 192 192 186 187 192 191 193 196 191 189 191 188
36 95 20 352 1 254 250 158 240 241 201 188 183 178 176 175 179 184 183 180 181 179 178 179 180 183 183 182 186 187 185 183 186 187 188 186 189 197 203 195 192 193 194 192 189 190 195 193 191
223 148 163 200 226 260 303 208 246 256 201 175 172 160 159 162 174 181 183 181 181 179 177 179 186 189 188 188 193 195 189 188 192 191 188 191 196 199 196 194 194 194 193 195 188 191 197 196 201
196 188 174 153 183 210 260 267 307 322 132 140 143 140 160 173 166 174 175 176 180 185 185 185 186 188 190 192 190 194 195 193 192 191 188 191 194 195 191 194 196 197 197 196 189 200 204 198 205
178 172 101 121 154 227 267 234 220 231 202 146 140 142 161 167 163 162 162 170 180 188 187 182 183 189 190 188 190 193 194 193 188 185 192 192 195 196 189 196 196 196 197 199 196 205 208 203 214
316 96 119 134 155 163 221 260 216 192 184 157 159 150 147 149 159 160 164 174 170 170 177 183 185 185 187 189 187 187 184 185 184 188 200 200 196 194 199 202 199 199 200 197 194 206 203 207 220
166 174 144 160 229 171 175 250 243 170 163 146 149 147 140 140 135 140 155 159 157 168 184 196 190 187 189 191 187 190 183 180 190 201 204 204 204 204 204 201 195 198 200 200 199 206 207 208 218
Height
1492 1493 1494 1495 1497 1502 1500 1489 1483 1482 1484 1484 1484 1485 1489 1492 1497 1505 1501 1499 1499 1498 1497 1497 1497 1496 1496 1496 1496 1497 1497 1499 1501 1504 1506 1508 1511 1514 1516 1519 1522 1525 1527 1530 1532 1535 1537 1539 1540
1492 1493 1495 1496 1501 1511 1502 1487 1485 1483 1485 1485 1486 1488 1491 1495 1496 1498 1499 1500 1500 1499 1499 1499 1499 1498 1498 1498 1498 1499 1500 1501 1503 1505 1508 1510 1513 1516 1518 1521 1524 1526 1529 1532 1534 1536 1538 1540 1542
1493 1494 1496 1497 1502 1506 1498 1486 1484 1484 1485 1484 1488 1491 1493 1497 1498 1499 1500 1501 1501 1501 1501 1501 1501 1500 1500 1500 1501 1501 1502 1504 1505 1508 1510 1512 1515 1517 1520 1523 1525 1528 1531 1533 1536 1538 1540 1542 1544
1493 1495 1495 1499 1499 1489 1485 1484 1482 1484 1486 1487 1488 1493 1497 1499 1499 1500 1502 1503 1502 1502 1503 1503 1503 1502 1502 1503 1503 1504 1505 1506 1508 1510 1512 1514 1517 1519 1522 1524 1527 1530 1532 1535 1537 1540 1542 1544 1546
1493 1493 1498 1502 1494 1484 1480 1480 1480 1483 1487 1490 1490 1496 1499 1501 1500 1501 1503 1504 1503 1504 1504 1504 1504 1504 1505 1505 1506 1506 1507 1509 1510 1511 1514 1516 1518 1521 1523 1526 1529 1531 1534 1536 1539 1541 1543 1545 1547
1493 1494 1505 1506 1493 1484 1481 1480 1481 1485 1489 1492 1493 1496 1501 1503 1502 1503 1504 1505 1505 1505 1506 1506 1506 1506 1507 1507 1508 1509 1510 1511 1512 1514 1515 1517 1520 1522 1525 1527 1530 1533 1535 1538 1540 1542 1544 1546 1548
1494 1497 1504 1500 1494 1488 1483 1481 1481 1485 1489 1492 1493 1497 1502 1504 1504 1505 1506 1507 1507 1507 1507 1508 1508 1508 1508 1509 1510 1510 1511 1513 1514 1516 1517 1519 1521 1524 1526 1529 1531 1534 1536 1539 1541 1543 1545 1547 1549
1492 1496 1499 1497 1494 1488 1481 1480 1482 1484 1488 1492 1493 1496 1501 1504 1505 1506 1507 1508 1508 1509 1509 1509 1509 1510 1510 1510 1510 1509 1511 1514 1516 1518 1520 1522 1524 1526 1528 1530 1533 1535 1538 1540 1542 1545 1547 1548 1550
1489 1498 1501 1493 1489 1484 1479 1480 1484 1485 1488 1492 1493 1494 1499 1503 1505 1506 1508 1509 1510 1510 1510 1511 1511 1511 1512 1512 1512 1511 1513 1516 1518 1520 1522 1524 1526 1528 1530 1532 1534 1537 1539 1541 1543 1546 1548 1549 1551
1486 1497 1490 1479 1476 1478 1477 1478 1482 1488 1490 1493 1495 1498 1500 1503 1505 1506 1507 1508 1509 1510 1511 1512 1512 1513 1514 1515 1515 1515 1516 1518 1520 1522 1524 1525 1527 1529 1531 1533 1535 1538 1540 1542 1544 1546 1548 1550 1551
1480 1483 1476 1472 1471 1474 1476 1479 1481 1486 1491 1491 1493 1497 1500 1503 1505 1506 1508 1508 1510 1511 1512 1513 1514 1515 1516 1516 1517 1518 1519 1520 1521 1523 1525 1527 1528 1530 1532 1534 1536 1538 1541 1543 1545 1547 1549 1550 1552
1476 1473 1471 1471 1471 1472 1474 1477 1481 1482 1486 1489 1491 1495 1498 1502 1504 1506 1507 1509 1510 1511 1512 1513 1515 1516 1517 1518 1519 1520 1520 1521 1523 1524 1526 1527 1529 1531 1533 1535 1537 1539 1541 1543 1545 1547 1549 1551 1552
1473 1472 1469 1469 1470 1472 1474 1477 1480 1484 1486 1490 1493 1496 1498 1501 1504 1506 1508 1509 1510 1511 1513 1514 1515 1516 1518 1519 1520 1521 1522 1523 1524 1525 1527 1528 1530 1532 1534 1536 1538 1540 1542 1544 1545 1547 1549 1551 1552
1472 1470 1469 1469 1470 1473 1475 1479 1480 1485 1487 1490 1493 1495 1498 1500 1502 1505 1507 1509 1510 1511 1513 1514 1516 1517 1518 1520 1521 1521 1522 1524 1525 1526 1527 1529 1531 1533 1535 1536 1538 1540 1542 1544 1546 1547 1549 1550 1552
1470 1472 1471 1469 1470 1474 1476 1484 1481 1483 1486 1489 1492 1495 1497 1499 1501 1503 1505 1507 1509 1511 1513 1514 1516 1517 1519 1520 1521 1522 1523 1524 1526 1527 1529 1531 1532 1534 1535 1537 1539 1541 1542 1544 1546 1547 1549 1550 1551
1473 1479 1485 1473 1470 1473 1479 1492 1482 1483 1485 1488 1491 1494 1496 1498 1500 1502 1504 1507 1509 1510 1512 1514 1516 1517 1519 1520 1521 1522 1523 1525 1526 1528 1529 1531 1532 1534 1536 1537 1539 1541 1542 1544 1545 1547 1548 1549 1550
1485 1494 1490 1478 1468 1470 1476 1486 1480 1482 1483 1486 1489 1492 1494 1496 1498 1500 1502 1505 1507 1509 1511 1513 1515 1517 1519 1520 1521 1522 1523 1525 1526 1528 1529 1531 1532 1534 1535 1537 1538 1540 1542 1543 1545 1546 1547 1548 1549
1496 1492 1487 1481 1470 1470 1475 1479 1477 1480 1481 1484 1486 1489 1491 1493 1495 1497 1500 1503 1506 1508 1511 1513 1514 1516 1518 1519 1521 1522 1523 1525 1526 1528 1529 1530 1532 1534 1535 1537 1538 1539 1541 1542 1544 1545 1546 1547 1548
1482 1486 1487 1477 1467 1470 1474 1476 1476 1478 1480 1482 1484 1486 1488 1491 1494 1496 1499 1502 1504 1507 1509 1511 1513 1515 1516 1518 1520 1521 1522 1524 1525 1527 1528 1530 1531 1533 1534 1535 1537 1538 1540 1541 1543 1544 1545 1546 1547
1478 1485 1484 1475 1466 1469 1476 1477 1474 1474 1476 1477 1479 1482 1485 1489 1493 1495 1497 1499 1501 1504 1506 1509 1511 1513 1515 1517 1519 1521 1522 1523 1525 1526 1527 1529 1530 1532 1533 1534 1536 1537 1538 1540 1541 1542 1543 1544 1545
1477 1481 1479 1476 1469 1468 1477 1486 1479 1474 1474 1476 1478 1479 1482 1485 1488 1492 1494 1496 1499 1501 1504 1506 1508 1511 1513 1515 1518 1520 1521 1523 1524 1525 1526 1527 1529 1530 1532 1533 1534 1535 1536 1537 1539 1540 1541 1542 1543
1479 1467 1467 1469 1479 1488 1483 1505 1487 1476 1475 1475 1476 1479 1481 1483 1486 1489 1492 1494 1496 1499 1502 1504 1507 1509 1511 1514 1515 1517 1518 1520 1521 1523 1524 1526 1527 1529 1530 1531 1532 1533 1534 1536 1537 1538 1539 1540 1540
1465 1458 1462 1465 1476 1488 1486 1500 1494 1479 1479 1475 1474 1476 1478 1480 1483 1485 1488 1490 1493 1497 1500 1503 1505 1507 1509 1511 1513 1515 1517 1519 1520 1522 1523 1524 1526 1527 1528 1530 1531 1532 1533 1534 1535 1535 1536 1537 1538
1453 1459 1466 1475 1487 1503 1490 1497 1498 1483 1476 1471 1471 1472 1475 1477 1480 1482 1485 1488 1492 1495 1498 1500 1503 1505 1507 1509 1511 1513 1515 1517 1518 1519 1521 1522 1524 1525 1526 1527 1528 1529 1530 1531 1532 1533 1534 1535 1535
1456 1478 1501 1504 1512 1508 1487 1492 1491 1470 1464 1465 1466 1468 1472 1475 1477 1480 1482 1486 1489 1492 1495 1497 1499 1502 1504 1507 1509 1511 1512 1514 1516 1517 1519 1520 1521 1523 1524 1525 1526 1527 1528 1529 1529 1530 1531 1532 1532
1459 1474 1500 1513 1515 1505 1489 1493 1480 1463 1459 1461 1463 1465 1469 1472 1474 1476 1478 1481 1485 1488 1491 1493 1496 1498 1501 1503 1506 1508 1510 1512 1513 1515 1517 1518 1519 1521 1522 1523 1524 1525 1526 1526 1527 1527 1528 1529 1529
1458 1467 1469 1489 1495 1504 1498 1486 1472 1463 1462 1464 1465 1466 1469 1471 1472 1474 1476 1478 1482 1485 1487 1489 1492 1495 1498 1500 1502 1505 1507 1509 1511 1513 1515 1516 1517 1519 1520 1521 1522 1522 1523 1524 1524 1524 1525 1526 1526
1447 1454 1474 1489 1504 1511 1500 1490 1485 1470 1466 1465 1465 1467 1469 1470 1470 1472 1474 1476 1479 1482 1485 1488 1490 1492 1494 1497 1499 1502 1504 1506 1508 1511 1512 1513 1514 1516 1517 1518 1518 1519 1520 1521 1521 1522 1522 1523 1523
1452 1457 1468 1484 1489 1504 1509 1495 1464 1463 1461 1462 1463 1464 1467 1469 1470 1471 1472 1474 1477 1480 1483 1485 1486 1489 1492 1493 1496 1498 1500 1503 1505 1507 1509 1511 1512 1512 1513 1514 1515 1515 1516 1517 1518 1519 1519 1520 1520
1446 1454 1467 1483 1488 1490 1497 1488 1455 1455 1456 1458 1461 1463 1465 1468 1469 1470 1472 1474 1476 1478 1480 1481 1483 1485 1487 1490 1492 1495 1497 1499 1501 1503 1505 1507 1508 1509 1510 1511 1511 1512 1513 1513 1514 1514 1515 1515 1516